Boonton, New Jersey, United States (07005)
Lat: 40.90N, Lon: 74.41W
Wx Zone: NJZ008
Local Info
Past Weather Observations for Wednesday, November 26, 2014

NOTE: This archive is for the closest National Weather Service station to Boonton. Information may differ from the station used for current weather conditions.

Click here for Long-term Archive

Time Weather Temperature Dewpoint Humidity Pressure Winds Precip Visibility
23:53
Overcast
36°F / 2°C 30°F / -1°C 81% 29.86 in
(1011 mb)
Calm 0.00 in
(0.00 mm)
10SM
22:53
Overcast
Light Snow
36°F / 2°C 30°F / -1°C 81% 29.83 in
(1010 mb)
NNW 4.6 mph
(NNW 7 kph)
0.00 in
(0.00 mm)
10SM
21:53
Overcast
Light Rain
36°F / 2°C 30°F / -1°C 81% 29.83 in
(1010 mb)
NNW 8.1 mph
(NNW 13 kph)
0.00 in
(0.00 mm)
10SM
21:42
Overcast
Light Rain
36°F / 2°C 30°F / -1°C 81% 29.83 in
(1010 mb)
Variable 3.5 mph
(Variable 6 kph)
0.00 in
(0.00 mm)
10SM
20:53
Overcast
Unknown Precip
34°F / 1°C 30°F / -1°C 87% 29.83 in
(1010 mb)
Variable 4.6 mph
(Variable 7 kph)
0.01 in
(0.25 mm)
8SM
20:14
Overcast
Light Snow
34°F / 1°C 30°F / -1°C 87% 29.83 in
(1010 mb)
Calm 0.01 in
(0.25 mm)
4SM
20:12
Overcast
Light Snow
34°F / 1°C 30°F / -1°C 87% 29.83 in
(1010 mb)
Calm 0.01 in
(0.25 mm)
4SM
20:00
Overcast
Light Snow
34°F / 1°C 30°F / -1°C 87% 29.83 in
(1010 mb)
Calm 0.00 in
(0.00 mm)
3SM
19:53
Overcast
Light Snow
34°F / 1°C 30°F / -1°C 87% 29.83 in
(1010 mb)
Variable 6.9 mph
(Variable 11 kph)
0.04 in
(1.02 mm)
3SM
19:45
Overcast
Light Snow
34°F / 1°C 30°F / -1°C 87% 29.83 in
(1010 mb)
Calm 0.03 in
(0.76 mm)
3SM
19:14
Overcast
Light Snow
34°F / 1°C 30°F / -1°C 87% 29.83 in
(1010 mb)
Variable 4.6 mph
(Variable 7 kph)
0.01 in
(0.25 mm)
2 1/2SM
19:07
Overcast
Light Snow
34°F / 1°C 30°F / -1°C 87% 29.83 in
(1010 mb)
N 8.1 mph
(N 13 kph)
0.01 in
(0.25 mm)
3SM
18:53
Overcast
Light Rain
34°F / 1°C 30°F / -1°C 87% 29.83 in
(1010 mb)
NE 5.8 mph
(NE 9 kph)
0.00 in
(0.00 mm)
5SM
18:34
Overcast
Light Rain
34°F / 1°C 30°F / -1°C 87% 29.83 in
(1010 mb)
Calm 0.00 in
(0.00 mm)
4SM
18:01
Overcast
Light Rain
34°F / 1°C 30°F / -1°C 87% 29.83 in
(1010 mb)
NE 8.1 mph
(NE 13 kph)
0.00 in
(0.00 mm)
5SM
17:53
Overcast
Light Rain
34°F / 1°C 30°F / -1°C 87% 29.83 in
(1010 mb)
Variable 6.9 mph
(Variable 11 kph)
0.02 in
(0.51 mm)
4SM
16:53
Overcast
Light Rain
34°F / 1°C 30°F / -1°C 87% 29.8 in
(1009 mb)
Variable 6.9 mph
(Variable 11 kph)
0.04 in
(1.02 mm)
6SM
16:17
Overcast
Light Snow
34°F / 1°C 30°F / -1°C 87% 29.83 in
(1010 mb)
NE 6.9 mph
(NE 11 kph)
0.02 in
(0.51 mm)
3SM
15:53
Overcast
Light Snow
34°F / 1°C 30°F / -1°C 87% 29.86 in
(1011 mb)
Variable 4.6 mph
(Variable 7 kph)
0.05 in
(1.27 mm)
3SM
15:44
Overcast
Light Snow
34°F / 1°C 30°F / -1°C 87% 29.86 in
(1011 mb)
Variable 4.6 mph
(Variable 7 kph)
0.04 in
(1.02 mm)
3SM
14:53
Overcast
Light Snow
34°F / 1°C 30°F / -1°C 87% 29.89 in
(1012 mb)
NE 5.8 mph
(NE 9 kph)
0.06 in
(1.52 mm)
2SM
14:50
Overcast
Light Snow
34°F / 1°C 30°F / -1°C 87% 29.89 in
(1012 mb)
Variable 3.5 mph
(Variable 6 kph)
0.06 in
(1.52 mm)
2SM
13:53
Overcast
Light Snow
34°F / 1°C 30°F / -1°C 87% 29.95 in
(1014 mb)
Variable 3.5 mph
(Variable 6 kph)
0.13 in
(3.30 mm)
1SM
13:15
Overcast
Light Snow
32°F / 0°C 30°F / -1°C 93% 30.01 in
(1016 mb)
ENE 5.8 mph
(ENE 9 kph)
0.06 in
(1.52 mm)
3/4SM
12:53
Overcast
Snow
32°F / 0°C 30°F / -1°C 93% 30.04 in
(1017 mb)
NE 4.6 mph
(NE 7 kph)
0.18 in
(4.57 mm)
1/2SM
12:40
Overcast
Light Snow
32°F / 0°C 30°F / -1°C 93% 30.04 in
(1017 mb)
Variable 4.6 mph
(Variable 7 kph)
0.13 in
(3.30 mm)
3/4SM
12:25
Obscured
Snow
32°F / 0°C 30°F / -1°C 93% 30.04 in
(1017 mb)
Variable 3.5 mph
(Variable 6 kph)
0.10 in
(2.54 mm)
1/2SM
12:10
Overcast
Heavy Snow
32°F / 0°C 30°F / -1°C 93% 30.04 in
(1017 mb)
Calm 0.05 in
(1.27 mm)
1/4SM
12:05
Overcast
Snow
34°F / 1°C 30°F / -1°C 87% 30.06 in
(1018 mb)
Calm 0.03 in
(0.76 mm)
1/2SM
11:53
Overcast
Light Snow
34°F / 1°C 30°F / -1°C 87% 30.06 in
(1018 mb)
Calm 0.12 in
(3.05 mm)
1SM
11:18
Overcast
Snow
32°F / 0°C 30°F / -1°C 93% 30.06 in
(1018 mb)
Variable 3.5 mph
(Variable 6 kph)
0.07 in
(1.78 mm)
1/2SM
10:53
Overcast
Snow
32°F / 0°C 30°F / -1°C 93% 30.12 in
(1020 mb)
ENE 3.5 mph
(ENE 6 kph)
0.13 in
(3.30 mm)
1/2SM
10:30
Obscured
Snow
32°F / 0°C 30°F / -1°C 93% 30.12 in
(1020 mb)
NE 3.5 mph
(NE 6 kph)
0.08 in
(2.03 mm)
1/2SM
10:20
Overcast
Snow
32°F / 0°C 30°F / -1°C 93% 30.18 in
(1022 mb)
Calm 0.06 in
(1.52 mm)
1/2SM
09:53
Obscured
Light Snow
34°F / 1°C 30°F / -1°C 87% 30.12 in
(1020 mb)
ENE 4.6 mph
(ENE 7 kph)
0.15 in
(3.81 mm)
3/4SM
09:50
Overcast
Light Snow
34°F / 1°C 30°F / -1°C 87% 30.12 in
(1020 mb)
NE 4.6 mph
(NE 7 kph)
0.15 in
(3.81 mm)
3/4SM
09:32
Overcast
Snow
34°F / 1°C 30°F / -1°C 87% 30.12 in
(1020 mb)
ENE 5.8 mph
(ENE 9 kph)
0.10 in
(2.54 mm)
1/2SM
09:17
Overcast
Light Snow
34°F / 1°C 30°F / -1°C 87% 30.15 in
(1021 mb)
ENE 4.6 mph
(ENE 7 kph)
0.06 in
(1.52 mm)
1SM
09:07
Overcast
Light Snow
34°F / 1°C 30°F / -1°C 87% 30.15 in
(1021 mb)
ENE 3.5 mph
(ENE 6 kph)
0.04 in
(1.02 mm)
1 1/4SM
08:57
Overcast
Rain
36°F / 2°C 32°F / 0°C 87% 30.12 in
(1020 mb)
ENE 8.1 mph
(ENE 13 kph)
0.01 in
(0.25 mm)
1 3/4SM
08:53
Overcast
Rain
36°F / 2°C 32°F / 0°C 87% 30.12 in
(1020 mb)
ENE 6.9 mph
(ENE 11 kph)
0.09 in
(2.29 mm)
2SM
08:50
Overcast
Rain
36°F / 2°C 32°F / 0°C 87% 30.12 in
(1020 mb)
NE 6.9 mph
(NE 11 kph)
0.08 in
(2.03 mm)
2SM
08:36
Overcast
Rain
37°F / 3°C 32°F / 0°C 81% 30.12 in
(1020 mb)
NE 10.4 mph
(NE 17 kph)
0.05 in
(1.27 mm)
2 1/2SM
08:11
Overcast
Light Rain
37°F / 3°C 34°F / 1°C 87% 30.15 in
(1021 mb)
NE 4.6 mph
(NE 7 kph)
0.01 in
(0.25 mm)
5SM
07:53
Overcast
Light Rain
39°F / 4°C 32°F / 0°C 75% 30.15 in
(1021 mb)
NE 5.8 mph
(NE 9 kph)
0.05 in
(1.27 mm)
7SM
07:31
Overcast
Light Rain
39°F / 4°C 34°F / 1°C 81% 30.15 in
(1021 mb)
NE 4.6 mph
(NE 7 kph)
0.02 in
(0.51 mm)
6SM
06:53
Overcast
43°F / 6°C 28°F / -2°C 57% 30.15 in
(1021 mb)
ENE 4.6 mph
(ENE 7 kph)
- 10SM
05:53
Overcast
45°F / 7°C 28°F / -2°C 53% 30.12 in
(1020 mb)
Variable 5.8 mph
(Variable 9 kph)
0.00 in
(0.00 mm)
10SM
04:53
Overcast
Light Rain
43°F / 6°C 32°F / 0°C 66% 30.15 in
(1021 mb)
Variable 3.5 mph
(Variable 6 kph)
0.00 in
(0.00 mm)
10SM
03:53
Overcast
43°F / 6°C 32°F / 0°C 66% 30.18 in
(1022 mb)
Calm - 10SM
02:53
Partly Cloudy
43°F / 6°C 30°F / -1°C 61% 30.21 in
(1023 mb)
Calm - 10SM
01:53
Clear
45°F / 7°C 30°F / -1°C 57% 30.18 in
(1022 mb)
Calm - 10SM
00:53
Clear
45°F / 7°C 30°F / -1°C 57% 30.15 in
(1021 mb)
Calm - 10SM
Time Weather Temperature Dewpoint Humidity Pressure Winds Precip Visibility


Weather for websites

WeatherForYou.com, LLC is not responsible for any damages or problems caused by this service. Current weather conditions are obtained from the closest station including government and personal stations which may have varying degrees of accuracy. Weather forecasts are derived from the NOAA NDFD. Like all things, this site belongs to Jesus Christ... He just trusts me to maintain it. If you have any questions or comments email webmaster@weatherforyou.com

Copyright © 2014, WeatherForYou.com LLC. All rights reserved.